CFG92H EDDL-EDDP

Flight info

Callsign CFG92H
Flight time 0h 50m
Altitude 23000
Route MEVEL4T/23L MEVEL L179 MISRI Z851 ELTUK Z47 EXOBA DCT TOLGI DCT NORTA DCT ADMOS T959 KOJEC KOJE1V EDDP/26L
Aircraft A333/M-SDE2E3FGHIJ1RWXYZ/S

Departure

Time 2026-05-05 11:49
Airport Düsseldorf Airport (EDDL)

Arrival

Time 2026-05-05 12:39
Airport Leipzig/Halle Airport (EDDP)
Time Latitude Longitude Altitude Speed Heading
2026-05-05 11:20 51.28069 6.76531 125 ft 0 kts 96°
2026-05-05 11:36 51.28069 6.76527 131 ft 3 kts 96°
2026-05-05 11:36 51.28072 6.76497 126 ft 3 kts 90°
2026-05-05 11:36 51.28073 6.76465 124 ft 3 kts 122°
2026-05-05 11:36 51.28083 6.76441 129 ft 2 kts 126°
2026-05-05 11:37 51.28092 6.76421 132 ft 1 kts 123°
2026-05-05 11:37 51.28100 6.76402 130 ft 2 kts 123°
2026-05-05 11:37 51.28109 6.76381 124 ft 2 kts 123°
2026-05-05 11:37 51.28118 6.76360 132 ft 2 kts 123°
2026-05-05 11:38 51.28126 6.76338 129 ft 2 kts 123°
2026-05-05 11:38 51.28135 6.76317 128 ft 2 kts 114°
2026-05-05 11:38 51.28142 6.76293 128 ft 3 kts 109°
2026-05-05 11:38 51.28144 6.76265 132 ft 2 kts 93°
2026-05-05 11:39 51.28142 6.76238 132 ft 0 kts 50°
2026-05-05 11:40 51.28143 6.76239 132 ft 1 kts 50°
2026-05-05 11:41 51.28148 6.76249 125 ft 2 kts 50°
2026-05-05 11:41 51.28158 6.76269 121 ft 3 kts 52°
2026-05-05 11:41 51.28173 6.76301 130 ft 5 kts 53°
2026-05-05 11:41 51.28206 6.76371 120 ft 11 kts 53°
2026-05-05 11:42 51.28260 6.76473 124 ft 11 kts 37°
2026-05-05 11:42 51.28333 6.76493 126 ft 11 kts 16°
2026-05-05 11:42 51.28386 6.76562 126 ft 9 kts 51°
2026-05-05 11:42 51.28428 6.76647 125 ft 10 kts 52°
2026-05-05 11:43 51.28470 6.76735 123 ft 9 kts 52°
2026-05-05 11:43 51.28505 6.76809 126 ft 8 kts 53°
2026-05-05 11:43 51.28541 6.76884 129 ft 9 kts 52°
2026-05-05 11:43 51.28584 6.76974 133 ft 10 kts 53°
2026-05-05 11:44 51.28627 6.77065 137 ft 10 kts 52°
2026-05-05 11:44 51.28675 6.77165 136 ft 13 kts 52°
2026-05-05 11:44 51.28735 6.77291 134 ft 15 kts 52°
2026-05-05 11:44 51.28801 6.77427 134 ft 16 kts 53°
2026-05-05 11:45 51.28863 6.77560 124 ft 15 kts 53°
2026-05-05 11:45 51.28923 6.77684 135 ft 14 kts 52°
2026-05-05 11:45 51.28984 6.77813 136 ft 15 kts 53°
2026-05-05 11:45 51.29040 6.77933 138 ft 13 kts 53°
2026-05-05 11:46 51.29099 6.78058 137 ft 15 kts 51°
2026-05-05 11:46 51.29162 6.78187 138 ft 15 kts 53°
2026-05-05 11:46 51.29228 6.78328 137 ft 17 kts 53°
2026-05-05 11:46 51.29300 6.78478 138 ft 11 kts 52°
2026-05-05 11:47 51.29352 6.78560 137 ft 10 kts 33°
2026-05-05 11:47 51.29408 6.78576 136 ft 7 kts 358°
2026-05-05 11:47 51.29459 6.78567 137 ft 7 kts 352°
2026-05-05 11:47 51.29510 6.78510 138 ft 13 kts 294°
2026-05-05 11:48 51.29461 6.78344 136 ft 16 kts 234°
2026-05-05 11:48 51.29203 6.77799 138 ft 105 kts 233°
2026-05-05 11:48 51.28607 6.76540 237 ft 169 kts 236°
2026-05-05 11:49 51.27875 6.75049 1050 ft 167 kts 236°
2026-05-05 11:49 51.27180 6.73503 1467 ft 182 kts 243°
2026-05-05 11:49 51.26904 6.71453 1851 ft 198 kts 285°
2026-05-05 11:49 51.27643 6.69611 2534 ft 203 kts 321°
2026-05-05 11:50 51.28912 6.68608 3307 ft 208 kts 349°
2026-05-05 11:50 51.30426 6.68496 3785 ft 232 kts
2026-05-05 11:50 51.32109 6.68706 4162 ft 257 kts
2026-05-05 11:50 51.33946 6.68971 4716 ft 271 kts
2026-05-05 11:51 51.35843 6.69218 5113 ft 275 kts
2026-05-05 11:51 51.37766 6.69441 5905 ft 278 kts
2026-05-05 11:51 51.39712 6.69548 6857 ft 282 kts
2026-05-05 11:51 51.41700 6.69579 7814 ft 286 kts
2026-05-05 11:52 51.43697 6.69590 8838 ft 288 kts
2026-05-05 11:52 51.45710 6.69597 9775 ft 292 kts
2026-05-05 11:52 51.47781 6.69604 10411 ft 307 kts
2026-05-05 11:52 51.50007 6.69614 10745 ft 331 kts
2026-05-05 11:53 51.52392 6.69623 11092 ft 352 kts
2026-05-05 11:53 51.54858 6.69629 11623 ft 364 kts
2026-05-05 11:53 51.57411 6.69638 12364 ft 368 kts
2026-05-05 11:53 51.59974 6.69955 13182 ft 370 kts 10°
2026-05-05 11:54 51.62457 6.71053 13967 ft 370 kts 25°
2026-05-05 11:54 51.64637 6.73214 14742 ft 370 kts 41°
2026-05-05 11:54 51.66268 6.76455 15244 ft 377 kts 63°
2026-05-05 11:54 51.67186 6.80441 15769 ft 384 kts 76°
2026-05-05 11:55 51.67693 6.84716 16251 ft 392 kts 83°
2026-05-05 11:55 51.67972 6.89101 16911 ft 394 kts 86°
2026-05-05 11:55 51.68168 6.93484 17546 ft 398 kts 88°
2026-05-05 11:55 51.68363 6.97941 18165 ft 402 kts 87°
2026-05-05 11:56 51.68587 7.02468 18684 ft 406 kts 86°
2026-05-05 11:56 51.68845 7.07026 19228 ft 409 kts 86°
2026-05-05 11:56 51.69133 7.11613 19800 ft 413 kts 86°
2026-05-05 11:56 51.69439 7.16247 20313 ft 417 kts 86°
2026-05-05 11:57 51.69754 7.20910 20845 ft 420 kts 85°
2026-05-05 11:57 51.70073 7.25616 21317 ft 424 kts 85°
2026-05-05 11:57 51.70392 7.30362 21826 ft 427 kts 85°
2026-05-05 11:57 51.70708 7.35089 22304 ft 430 kts 85°
2026-05-05 11:58 51.71025 7.39897 22736 ft 433 kts 85°
2026-05-05 11:58 51.71339 7.44711 22901 ft 441 kts 85°
2026-05-05 11:58 51.71663 7.49730 22880 ft 449 kts 85°
2026-05-05 11:58 51.71983 7.54710 22891 ft 451 kts 86°
2026-05-05 11:59 51.72305 7.59740 22895 ft 450 kts 86°
2026-05-05 11:59 51.72623 7.64752 22880 ft 450 kts 85°
2026-05-05 11:59 51.72941 7.69779 22886 ft 450 kts 86°
2026-05-05 11:59 51.73256 7.74808 22877 ft 450 kts 85°
2026-05-05 12:00 51.73568 7.79833 22885 ft 450 kts 86°
2026-05-05 12:00 51.73878 7.84864 22881 ft 451 kts 86°
2026-05-05 12:00 51.74186 7.89906 22880 ft 452 kts 86°
2026-05-05 12:00 51.74493 7.94965 22890 ft 452 kts 86°
2026-05-05 12:01 51.74794 7.99955 22888 ft 452 kts 86°
2026-05-05 12:01 51.75101 8.05081 22871 ft 452 kts 86°
2026-05-05 12:01 51.75401 8.10128 22880 ft 452 kts 86°
2026-05-05 12:01 51.75695 8.15110 22888 ft 452 kts 86°
2026-05-05 12:02 51.75991 8.20157 22878 ft 452 kts 86°
2026-05-05 12:02 51.76285 8.25228 22866 ft 454 kts 86°
2026-05-05 12:02 51.76579 8.30330 22878 ft 456 kts 86°
2026-05-05 12:02 51.76870 8.35430 22872 ft 457 kts 86°
2026-05-05 12:03 51.77158 8.40537 22875 ft 457 kts 86°
2026-05-05 12:03 51.77444 8.45652 22861 ft 457 kts 86°
2026-05-05 12:03 51.77727 8.50763 22868 ft 457 kts 86°
2026-05-05 12:03 51.78009 8.55883 22860 ft 457 kts 86°
2026-05-05 12:04 51.78288 8.60992 22865 ft 457 kts 86°
2026-05-05 12:04 51.78565 8.66120 22865 ft 457 kts 86°
2026-05-05 12:04 51.78837 8.71184 22865 ft 457 kts 86°
2026-05-05 12:04 51.79111 8.76323 22865 ft 457 kts 86°
2026-05-05 12:05 51.79381 8.81435 22867 ft 457 kts 86°
2026-05-05 12:05 51.79650 8.86565 22859 ft 458 kts 86°
2026-05-05 12:05 51.79916 8.91699 22869 ft 458 kts 86°
2026-05-05 12:05 51.80180 8.96831 22868 ft 458 kts 86°
2026-05-05 12:06 51.80439 9.01901 22867 ft 458 kts 86°
2026-05-05 12:06 51.80699 9.07033 22868 ft 458 kts 87°
2026-05-05 12:06 51.80957 9.12170 22869 ft 458 kts 87°
2026-05-05 12:06 51.81213 9.17317 22858 ft 458 kts 87°
2026-05-05 12:07 51.81466 9.22453 22863 ft 458 kts 87°
2026-05-05 12:07 51.81716 9.27579 22862 ft 458 kts 87°
2026-05-05 12:07 51.81965 9.32719 22862 ft 458 kts 87°
2026-05-05 12:07 51.82211 9.37849 22869 ft 458 kts 87°
2026-05-05 12:08 51.82455 9.42979 22866 ft 458 kts 87°
2026-05-05 12:08 51.82696 9.48108 22870 ft 458 kts 87°
2026-05-05 12:08 51.83068 9.53228 22868 ft 459 kts 81°
2026-05-05 12:08 51.83663 9.58304 22868 ft 459 kts 80°
2026-05-05 12:09 51.84324 9.63356 22862 ft 459 kts 79°
2026-05-05 12:09 51.85027 9.68411 22868 ft 459 kts 78°
2026-05-05 12:09 51.85743 9.73430 22865 ft 460 kts 78°
2026-05-05 12:09 51.86320 9.78517 22847 ft 458 kts 87°
2026-05-05 12:10 51.86267 9.83636 22870 ft 455 kts 98°
2026-05-05 12:10 51.85842 9.88641 22867 ft 454 kts 102°
2026-05-05 12:10 51.85249 9.93647 22866 ft 454 kts 104°
2026-05-05 12:10 51.84563 9.98646 22876 ft 453 kts 105°
2026-05-05 12:11 51.83842 10.03609 22874 ft 453 kts 105°
2026-05-05 12:11 51.83119 10.08541 22708 ft 444 kts 105°
2026-05-05 12:11 51.82423 10.13348 22461 ft 436 kts 105°
2026-05-05 12:11 51.81741 10.18109 22200 ft 433 kts 105°
2026-05-05 12:12 51.81068 10.22847 21932 ft 433 kts 105°
2026-05-05 12:12 51.80398 10.27587 21661 ft 432 kts 105°
2026-05-05 12:12 51.79730 10.32329 21407 ft 431 kts 105°
2026-05-05 12:12 51.79066 10.37045 21142 ft 430 kts 105°
2026-05-05 12:13 51.78402 10.41746 20886 ft 429 kts 105°
2026-05-05 12:13 51.77746 10.46377 20655 ft 427 kts 105°
2026-05-05 12:13 51.77082 10.51051 20397 ft 426 kts 105°
2026-05-05 12:13 51.76418 10.55709 20140 ft 425 kts 105°
2026-05-05 12:14 51.75756 10.60341 19898 ft 423 kts 105°
2026-05-05 12:14 51.75093 10.64958 19653 ft 422 kts 105°
2026-05-05 12:14 51.74429 10.69570 19406 ft 421 kts 105°
2026-05-05 12:14 51.73764 10.74167 19152 ft 420 kts 105°
2026-05-05 12:15 51.73099 10.78755 18924 ft 420 kts 105°
2026-05-05 12:15 51.72342 10.83261 18697 ft 417 kts 111°
2026-05-05 12:15 51.71397 10.87679 18455 ft 416 kts 112°
2026-05-05 12:15 51.70396 10.92047 18225 ft 414 kts 113°
2026-05-05 12:16 51.69357 10.96377 17963 ft 413 kts 114°
2026-05-05 12:16 51.68305 11.00668 17694 ft 411 kts 114°
2026-05-05 12:16 51.67254 11.04921 17317 ft 405 kts 114°
2026-05-05 12:16 51.66219 11.09112 16751 ft 400 kts 114°
2026-05-05 12:17 51.65195 11.13257 16150 ft 397 kts 114°
2026-05-05 12:17 51.64193 11.17325 15567 ft 393 kts 114°
2026-05-05 12:17 51.63195 11.21379 14998 ft 389 kts 114°
2026-05-05 12:17 51.62111 11.25355 14421 ft 383 kts 121°
2026-05-05 12:18 51.60711 11.28980 13873 ft 378 kts 126°
2026-05-05 12:18 51.59234 11.32452 13262 ft 374 kts 127°
2026-05-05 12:18 51.58247 11.34715 12874 ft 371 kts 127°
2026-05-05 12:18 51.56763 11.38085 12311 ft 367 kts 127°
2026-05-05 12:19 51.55296 11.41396 11756 ft 363 kts 127°
2026-05-05 12:19 51.53837 11.44677 11236 ft 359 kts 128°
2026-05-05 12:19 51.52445 11.48029 10887 ft 363 kts 121°
2026-05-05 12:19 51.51588 11.51851 10590 ft 366 kts 101°
2026-05-05 12:20 51.51513 11.55833 10429 ft 351 kts 88°
2026-05-05 12:20 51.51698 11.59673 10221 ft 338 kts 86°
2026-05-05 12:20 51.51910 11.63362 10019 ft 326 kts 86°
2026-05-05 12:20 51.52111 11.66932 9841 ft 315 kts 86°
2026-05-05 12:21 51.52298 11.70375 9646 ft 305 kts 86°
2026-05-05 12:21 51.52475 11.73724 9388 ft 299 kts 86°
2026-05-05 12:21 51.52646 11.77049 9196 ft 298 kts 86°
2026-05-05 12:21 51.52814 11.80370 9021 ft 298 kts 86°
2026-05-05 12:22 51.52978 11.83631 8840 ft 296 kts 86°
2026-05-05 12:22 51.53141 11.86875 8729 ft 286 kts 86°
2026-05-05 12:22 51.53296 11.89974 8565 ft 270 kts 86°
2026-05-05 12:22 51.53441 11.92901 8403 ft 255 kts 86°
2026-05-05 12:23 51.53577 11.95663 8218 ft 243 kts 86°
2026-05-05 12:23 51.53707 11.98326 8047 ft 237 kts 86°
2026-05-05 12:23 51.53834 12.00966 7902 ft 236 kts 86°
2026-05-05 12:23 51.53960 12.03592 7760 ft 235 kts 86°
2026-05-05 12:24 51.54084 12.06186 7613 ft 235 kts 86°
2026-05-05 12:24 51.54211 12.08831 7475 ft 234 kts 86°
2026-05-05 12:24 51.54333 12.11401 7334 ft 234 kts 86°
2026-05-05 12:24 51.54457 12.14002 7177 ft 233 kts 86°
2026-05-05 12:25 51.54580 12.16601 7051 ft 232 kts 86°
2026-05-05 12:25 51.54702 12.19198 6924 ft 232 kts 86°
2026-05-05 12:25 51.54823 12.21777 6771 ft 231 kts 86°
2026-05-05 12:25 51.54946 12.24352 6645 ft 231 kts 86°
2026-05-05 12:26 51.55065 12.26924 6504 ft 230 kts 86°
2026-05-05 12:26 51.55180 12.29455 6371 ft 230 kts 86°
2026-05-05 12:26 51.55297 12.32009 6228 ft 229 kts 86°
2026-05-05 12:26 51.55413 12.34560 6062 ft 228 kts 86°
2026-05-05 12:27 51.55527 12.37073 5921 ft 221 kts 86°
2026-05-05 12:27 51.55636 12.39475 5789 ft 210 kts 86°
2026-05-05 12:27 51.55740 12.41783 5568 ft 203 kts 86°
2026-05-05 12:27 51.55840 12.44026 5311 ft 203 kts 86°
2026-05-05 12:28 51.55940 12.46265 5168 ft 200 kts 86°
2026-05-05 12:28 51.56038 12.48465 5045 ft 194 kts 86°
2026-05-05 12:28 51.56132 12.50605 4916 ft 189 kts 86°
2026-05-05 12:28 51.56223 12.52677 4874 ft 184 kts 86°
2026-05-05 12:29 51.56313 12.54719 4866 ft 184 kts 85°
2026-05-05 12:29 51.56404 12.56789 4865 ft 185 kts 86°
2026-05-05 12:29 51.56493 12.58840 4759 ft 182 kts 86°
2026-05-05 12:29 51.56581 12.60854 4618 ft 179 kts 86°
2026-05-05 12:30 51.56650 12.62853 4539 ft 179 kts 93°
2026-05-05 12:30 51.56211 12.64663 4473 ft 186 kts 134°
2026-05-05 12:30 51.55027 12.65741 4432 ft 199 kts 169°
2026-05-05 12:30 51.53664 12.65772 4377 ft 189 kts 187°
2026-05-05 12:31 51.52407 12.65489 4300 ft 181 kts 189°
2026-05-05 12:31 51.51179 12.65168 4164 ft 177 kts 189°
2026-05-05 12:31 51.49984 12.64750 3968 ft 175 kts 201°
2026-05-05 12:31 51.48882 12.63922 3768 ft 174 kts 208°
2026-05-05 12:32 51.47846 12.62922 3571 ft 172 kts 214°
2026-05-05 12:32 51.46927 12.61867 3561 ft 152 kts 216°
2026-05-05 12:32 51.46105 12.60895 3355 ft 142 kts 217°
2026-05-05 12:32 51.45326 12.59970 3116 ft 137 kts 217°
2026-05-05 12:33 51.44573 12.59074 2819 ft 134 kts 217°
2026-05-05 12:33 51.43825 12.58191 2533 ft 133 kts 217°
2026-05-05 12:33 51.43171 12.57166 2234 ft 131 kts 243°
2026-05-05 12:33 51.42889 12.55772 1976 ft 134 kts 262°
2026-05-05 12:34 51.42774 12.54264 1869 ft 142 kts 268°
2026-05-05 12:34 51.42692 12.52680 1778 ft 142 kts 269°
2026-05-05 12:34 51.42621 12.51099 1761 ft 141 kts 268°
2026-05-05 12:34 51.42542 12.49529 1779 ft 142 kts 268°
2026-05-05 12:35 51.42460 12.47954 1769 ft 142 kts 269°
2026-05-05 12:35 51.42379 12.46370 1779 ft 142 kts 267°
2026-05-05 12:35 51.42301 12.44797 1758 ft 141 kts 269°
2026-05-05 12:35 51.42229 12.43249 1758 ft 141 kts 268°
2026-05-05 12:36 51.42157 12.41683 1763 ft 141 kts 267°
2026-05-05 12:36 51.42083 12.40117 1762 ft 141 kts 268°
2026-05-05 12:36 51.42011 12.38550 1759 ft 141 kts 268°
2026-05-05 12:36 51.41938 12.36980 1759 ft 141 kts 267°
2026-05-05 12:37 51.41864 12.35432 1724 ft 142 kts 268°
2026-05-05 12:37 51.41789 12.33838 1541 ft 143 kts 269°
2026-05-05 12:37 51.41714 12.32247 1344 ft 142 kts 270°
2026-05-05 12:37 51.41640 12.30673 1144 ft 142 kts 270°
2026-05-05 12:38 51.41567 12.29110 920 ft 138 kts 269°
2026-05-05 12:38 51.41491 12.27608 692 ft 132 kts 270°
2026-05-05 12:38 51.41424 12.26159 560 ft 131 kts 268°
2026-05-05 12:38 51.41364 12.24765 470 ft 102 kts 265°
2026-05-05 12:39 51.41332 12.24157 469 ft 39 kts 265°